TimeEDT,TemperatureF,Dew PointF,Humidity,Sea Level PressureIn,VisibilityMPH,Wind Direction,Wind SpeedMPH,Gust SpeedMPH,PrecipitationIn,Events,Conditions,WindDirDegrees,DateUTC
12:53 AM,77.0,66.0,69,30.14,10.0,NNE,12.7,-,N/A,,Mostly Cloudy,30,2012-10-13 04:53:00
1:53 AM,77.0,66.0,69,30.13,10.0,NNE,13.8,-,N/A,,Partly Cloudy,30,2012-10-13 05:53:00
2:53 AM,77.0,64.9,66,30.11,10.0,NNE,15.0,-,N/A,,Partly Cloudy,30,2012-10-13 06:53:00
3:53 AM,75.9,64.9,69,30.10,10.0,NE,15.0,-,N/A,,Partly Cloudy,40,2012-10-13 07:53:00
4:53 AM,75.9,64.0,67,30.10,10.0,NE,15.0,-,N/A,,Partly Cloudy,50,2012-10-13 08:53:00
5:53 AM,77.0,64.9,66,30.11,10.0,NE,17.3,-,N/A,,Mostly Cloudy,40,2012-10-13 09:53:00
6:53 AM,77.0,63.0,62,30.13,10.0,NE,18.4,-,N/A,,Scattered Clouds,50,2012-10-13 10:53:00
7:53 AM,78.1,64.0,62,30.14,10.0,NE,18.4,-,N/A,,Scattered Clouds,40,2012-10-13 11:53:00
8:53 AM,80.1,64.0,58,30.15,10.0,ENE,19.6,26.5,N/A,,Partly Cloudy,60,2012-10-13 12:53:00
9:53 AM,82.0,64.9,56,30.16,10.0,NE,19.6,26.5,N/A,,Clear,40,2012-10-13 13:53:00
10:53 AM,82.9,64.9,54,30.17,10.0,ENE,18.4,25.3,N/A,,Clear,60,2012-10-13 14:53:00
11:53 AM,82.9,64.0,53,30.17,10.0,NE,19.6,27.6,N/A,,Clear,50,2012-10-13 15:53:00
12:53 PM,84.0,66.0,55,30.16,10.0,NE,18.4,26.5,N/A,,Clear,50,2012-10-13 16:53:00
1:53 PM,84.9,64.9,51,30.14,10.0,NE,20.7,25.3,N/A,,Scattered Clouds,50,2012-10-13 17:53:00
2:53 PM,84.0,66.9,56,30.12,10.0,NE,18.4,26.5,N/A,,Partly Cloudy,50,2012-10-13 18:53:00
4:53 PM,82.0,68.0,62,30.09,10.0,NNE,21.9,26.5,N/A,,Mostly Cloudy,30,2012-10-13 20:53:00
5:53 PM,81.0,69.1,67,30.09,10.0,ENE,17.3,26.5,N/A,,Overcast,60,2012-10-13 21:53:00
6:53 PM,80.1,68.0,67,30.10,10.0,NE,20.7,27.6,N/A,,Overcast,50,2012-10-13 22:53:00
8:53 PM,80.1,69.1,69,30.11,10.0,ENE,20.7,28.8,0.00,,Overcast,70,2012-10-14 00:53:00
10:53 PM,79.0,64.9,62,30.13,10.0,ENE,19.6,-,N/A,,Partly Cloudy,70,2012-10-14 02:53:00